JBU1022 KONT-KSAN

Flight info

Callsign JBU1022
Flight time 0h 38m
Altitude 11000
Route PDZ V186 HAILE V66 MZB
Aircraft A320/M-SDE3FGHIRWY/LB1

Departure

Time 2026-05-05 00:27
Airport Ontario International Airport (KONT)

Arrival

Time 2026-05-05 01:06
Airport San Diego International Airport (KSAN)
Time Latitude Longitude Altitude Speed Heading
2026-05-04 23:56 34.05990 -117.59380 944 ft 0 kts
2026-05-05 00:16 34.05977 -117.59380 943 ft 4 kts 359°
2026-05-05 00:17 34.05950 -117.59379 942 ft 4 kts 357°
2026-05-05 00:17 34.05923 -117.59378 942 ft 4 kts
2026-05-05 00:17 34.05901 -117.59385 943 ft 4 kts 69°
2026-05-05 00:17 34.05899 -117.59409 943 ft 4 kts 89°
2026-05-05 00:18 34.05898 -117.59431 943 ft 0 kts 91°
2026-05-05 00:22 34.05898 -117.59429 943 ft 1 kts 91°
2026-05-05 00:22 34.05898 -117.59408 943 ft 4 kts 91°
2026-05-05 00:23 34.05898 -117.59368 943 ft 6 kts 90°
2026-05-05 00:23 34.05898 -117.59302 943 ft 9 kts 90°
2026-05-05 00:23 34.05899 -117.59218 944 ft 11 kts 90°
2026-05-05 00:23 34.05898 -117.59122 944 ft 12 kts 90°
2026-05-05 00:24 34.05898 -117.59010 944 ft 14 kts 90°
2026-05-05 00:24 34.05899 -117.58884 944 ft 16 kts 89°
2026-05-05 00:24 34.05899 -117.58749 944 ft 16 kts 90°
2026-05-05 00:24 34.05898 -117.58628 944 ft 15 kts 91°
2026-05-05 00:25 34.05898 -117.58494 944 ft 17 kts 89°
2026-05-05 00:25 34.05899 -117.58342 944 ft 19 kts 90°
2026-05-05 00:25 34.05881 -117.58270 943 ft 7 kts 157°
2026-05-05 00:25 34.05829 -117.58275 944 ft 9 kts 180°
2026-05-05 00:26 34.05760 -117.58273 944 ft 11 kts 179°
2026-05-05 00:26 34.05695 -117.58274 944 ft 5 kts 192°
2026-05-05 00:26 34.05689 -117.58298 944 ft 0 kts 265°
2026-05-05 00:26 34.05689 -117.58319 945 ft 7 kts 268°
2026-05-05 00:27 34.05688 -117.58656 945 ft 74 kts 270°
2026-05-05 00:27 34.05687 -117.59515 942 ft 128 kts 270°
2026-05-05 00:27 34.05693 -117.60754 1020 ft 162 kts 270°
2026-05-05 00:27 34.05658 -117.62099 1651 ft 160 kts 261°
2026-05-05 00:28 34.05109 -117.63248 2241 ft 171 kts 218°
2026-05-05 00:28 34.03848 -117.63567 2425 ft 213 kts 171°
2026-05-05 00:28 34.02429 -117.62671 2721 ft 249 kts 149°
2026-05-05 00:28 34.00995 -117.61339 3310 ft 269 kts 145°
2026-05-05 00:29 33.99546 -117.59909 4316 ft 271 kts 145°
2026-05-05 00:29 33.98061 -117.58482 5208 ft 276 kts 147°
2026-05-05 00:29 33.96523 -117.57068 6098 ft 279 kts 147°
2026-05-05 00:29 33.94938 -117.55669 6764 ft 286 kts 148°
2026-05-05 00:30 33.93322 -117.54284 6942 ft 285 kts 149°
2026-05-05 00:30 33.91691 -117.52916 7056 ft 286 kts 149°
2026-05-05 00:30 33.90054 -117.51562 7040 ft 285 kts 149°
2026-05-05 00:30 33.88427 -117.50196 7010 ft 285 kts 148°
2026-05-05 00:31 33.86802 -117.48828 7012 ft 285 kts 149°
2026-05-05 00:31 33.85169 -117.47466 6996 ft 285 kts 149°
2026-05-05 00:31 33.83536 -117.46095 7010 ft 286 kts 149°
2026-05-05 00:31 33.81908 -117.44725 7005 ft 286 kts 149°
2026-05-05 00:32 33.80274 -117.43357 7014 ft 286 kts 149°
2026-05-05 00:32 33.78638 -117.41992 7034 ft 287 kts 149°
2026-05-05 00:32 33.76996 -117.40618 7026 ft 288 kts 148°
2026-05-05 00:32 33.75359 -117.39236 6993 ft 287 kts 148°
2026-05-05 00:33 33.73722 -117.37852 6989 ft 288 kts 148°
2026-05-05 00:33 33.72083 -117.36475 6990 ft 288 kts 148°
2026-05-05 00:33 33.70444 -117.35101 6982 ft 287 kts 148°
2026-05-05 00:33 33.68802 -117.33727 6984 ft 288 kts 147°
2026-05-05 00:34 33.67156 -117.32351 6981 ft 288 kts 148°
2026-05-05 00:34 33.65513 -117.30979 6986 ft 288 kts 148°
2026-05-05 00:34 33.63869 -117.29607 6988 ft 288 kts 148°
2026-05-05 00:34 33.62221 -117.28236 6997 ft 288 kts 148°
2026-05-05 00:35 33.60569 -117.26864 7038 ft 291 kts 148°
2026-05-05 00:35 33.58902 -117.25482 7907 ft 291 kts 148°
2026-05-05 00:35 33.57234 -117.24095 8846 ft 293 kts 148°
2026-05-05 00:35 33.55547 -117.22694 9725 ft 296 kts 149°
2026-05-05 00:36 33.53833 -117.21273 10313 ft 309 kts 149°
2026-05-05 00:36 33.51993 -117.19752 10560 ft 333 kts 148°
2026-05-05 00:36 33.50020 -117.18130 10789 ft 352 kts 150°
2026-05-05 00:36 33.47855 -117.16708 10981 ft 359 kts 159°
2026-05-05 00:37 33.45431 -117.15702 11014 ft 379 kts 169°
2026-05-05 00:37 33.42797 -117.15106 11017 ft 389 kts 173°
2026-05-05 00:37 33.40114 -117.14550 11021 ft 392 kts 173°
2026-05-05 00:37 33.37453 -117.13987 10863 ft 381 kts 173°
2026-05-05 00:38 33.34903 -117.13438 10621 ft 366 kts 173°
2026-05-05 00:38 33.32417 -117.12903 10380 ft 361 kts 173°
2026-05-05 00:38 33.29949 -117.12374 10147 ft 360 kts 173°
2026-05-05 00:38 33.27498 -117.11854 9927 ft 351 kts 173°
2026-05-05 00:39 33.25189 -117.11359 9812 ft 323 kts 173°
2026-05-05 00:39 33.23077 -117.10904 9808 ft 294 kts 174°
2026-05-05 00:39 33.21100 -117.10485 9795 ft 286 kts 174°
2026-05-05 00:39 33.19170 -117.09994 9328 ft 283 kts 163°
2026-05-05 00:40 33.17488 -117.08745 8751 ft 291 kts 143°
2026-05-05 00:40 33.15973 -117.07140 8412 ft 291 kts 141°
2026-05-05 00:40 33.14479 -117.05515 8102 ft 290 kts 141°
2026-05-05 00:40 33.12991 -117.03897 7809 ft 290 kts 141°
2026-05-05 00:41 33.11502 -117.02286 7513 ft 288 kts 141°
2026-05-05 00:41 33.10010 -117.00680 7169 ft 290 kts 140°
2026-05-05 00:41 33.08511 -116.99083 6868 ft 288 kts 141°
2026-05-05 00:41 33.07014 -116.97496 6542 ft 288 kts 141°
2026-05-05 00:42 33.05509 -116.95916 6207 ft 288 kts 141°
2026-05-05 00:42 33.04013 -116.94341 5929 ft 286 kts 141°
2026-05-05 00:42 33.02529 -116.92782 5608 ft 284 kts 140°
2026-05-05 00:42 33.00939 -116.91421 5296 ft 279 kts 156°
2026-05-05 00:43 32.99178 -116.90484 5028 ft 275 kts 160°
2026-05-05 00:43 32.97414 -116.89617 4968 ft 275 kts 161°
2026-05-05 00:43 32.95641 -116.88757 4969 ft 270 kts 161°
2026-05-05 00:43 32.93945 -116.87930 4967 ft 257 kts 160°
2026-05-05 00:44 32.92339 -116.87138 4968 ft 243 kts 160°
2026-05-05 00:44 32.90824 -116.86382 4981 ft 232 kts 161°
2026-05-05 00:44 32.89341 -116.85641 4982 ft 230 kts 161°
2026-05-05 00:44 32.87863 -116.84900 4989 ft 231 kts 160°
2026-05-05 00:45 32.86383 -116.84157 4989 ft 231 kts 160°
2026-05-05 00:45 32.84906 -116.83413 4989 ft 230 kts 161°
2026-05-05 00:45 32.83452 -116.82667 4984 ft 231 kts 160°
2026-05-05 00:45 32.81985 -116.81910 4987 ft 231 kts 160°
2026-05-05 00:46 32.80510 -116.81156 4989 ft 230 kts 161°
2026-05-05 00:46 32.79017 -116.80397 4983 ft 231 kts 161°
2026-05-05 00:46 32.77533 -116.79643 4987 ft 232 kts 160°
2026-05-05 00:46 32.76036 -116.78926 4982 ft 231 kts 169°
2026-05-05 00:47 32.74511 -116.78914 4981 ft 219 kts 203°
2026-05-05 00:47 32.73296 -116.79883 4980 ft 209 kts 237°
2026-05-05 00:47 32.72612 -116.81359 4980 ft 198 kts 249°
2026-05-05 00:47 32.72073 -116.82856 4987 ft 194 kts 250°
2026-05-05 00:48 32.71558 -116.84328 4981 ft 192 kts 250°
2026-05-05 00:48 32.71065 -116.85771 4986 ft 191 kts 250°
2026-05-05 00:48 32.70574 -116.87228 4982 ft 190 kts 251°
2026-05-05 00:48 32.70083 -116.88691 4992 ft 190 kts 250°
2026-05-05 00:49 32.69594 -116.90148 4955 ft 189 kts 250°
2026-05-05 00:49 32.69111 -116.91604 4701 ft 189 kts 251°
2026-05-05 00:49 32.68628 -116.93060 4382 ft 190 kts 251°
2026-05-05 00:49 32.68143 -116.94514 4128 ft 189 kts 250°
2026-05-05 00:50 32.67681 -116.95964 3885 ft 187 kts 257°
2026-05-05 00:50 32.67815 -116.97456 3792 ft 188 kts 298°
2026-05-05 00:50 32.68481 -116.98800 3794 ft 190 kts 288°
2026-05-05 00:50 32.68835 -117.00300 3699 ft 187 kts 285°
2026-05-05 00:51 32.69183 -117.01787 3487 ft 187 kts 285°
2026-05-05 00:51 32.69539 -117.03264 3315 ft 186 kts 285°
2026-05-05 00:51 32.69899 -117.04745 3189 ft 185 kts 285°
2026-05-05 00:51 32.70247 -117.06174 3077 ft 175 kts 285°
2026-05-05 00:52 32.70576 -117.07527 2930 ft 166 kts 285°
2026-05-05 00:52 32.70889 -117.08811 2708 ft 163 kts 285°
2026-05-05 00:52 32.71220 -117.10174 2518 ft 180 kts 285°
2026-05-05 00:52 32.71586 -117.11679 2836 ft 199 kts 285°
2026-05-05 00:53 32.71978 -117.13288 3544 ft 205 kts 285°
2026-05-05 00:53 32.72375 -117.14922 4371 ft 207 kts 285°
2026-05-05 00:53 32.73019 -117.16464 4866 ft 213 kts 312°
2026-05-05 00:53 32.74281 -117.17366 4979 ft 218 kts 345°
2026-05-05 00:54 32.75794 -117.17275 5002 ft 223 kts 14°
2026-05-05 00:54 32.77249 -117.16624 5008 ft 225 kts 19°
2026-05-05 00:54 32.78687 -117.15883 4989 ft 225 kts 20°
2026-05-05 00:54 32.80122 -117.15124 4991 ft 226 kts 21°
2026-05-05 00:55 32.81451 -117.14129 4990 ft 230 kts 46°
2026-05-05 00:55 32.82170 -117.12436 4992 ft 234 kts 80°
2026-05-05 00:55 32.82134 -117.10504 4995 ft 236 kts 98°
2026-05-05 00:55 32.81872 -117.08576 4991 ft 236 kts 100°
2026-05-05 00:56 32.81576 -117.06659 4993 ft 236 kts 101°
2026-05-05 00:56 32.81273 -117.04746 4993 ft 235 kts 101°
2026-05-05 00:56 32.80963 -117.02830 4987 ft 236 kts 100°
2026-05-05 00:56 32.80647 -117.00910 4994 ft 237 kts 101°
2026-05-05 00:57 32.80335 -116.98987 4993 ft 237 kts 101°
2026-05-05 00:57 32.80026 -116.97061 4986 ft 237 kts 101°
2026-05-05 00:57 32.79723 -116.95135 4988 ft 237 kts 101°
2026-05-05 00:57 32.79419 -116.93205 4990 ft 238 kts 101°
2026-05-05 00:58 32.78937 -116.91340 4985 ft 236 kts 123°
2026-05-05 00:58 32.77775 -116.90025 4985 ft 231 kts 159°
2026-05-05 00:58 32.76257 -116.89651 4997 ft 217 kts 185°
2026-05-05 00:58 32.74815 -116.89756 5005 ft 198 kts 190°
2026-05-05 00:59 32.73488 -116.89904 4836 ft 188 kts 191°
2026-05-05 00:59 32.72188 -116.90059 4510 ft 187 kts 191°
2026-05-05 00:59 32.71005 -116.90552 4245 ft 177 kts 220°
2026-05-05 00:59 32.70127 -116.91482 4111 ft 163 kts 233°
2026-05-05 01:00 32.69476 -116.92530 3982 ft 153 kts 239°
2026-05-05 01:00 32.68894 -116.93554 3898 ft 146 kts 240°
2026-05-05 01:00 32.68331 -116.94547 3860 ft 144 kts 239°
2026-05-05 01:00 32.67894 -116.95601 3828 ft 143 kts 261°
2026-05-05 01:01 32.67953 -116.96784 3475 ft 149 kts 287°
2026-05-05 01:01 32.68262 -116.98032 3104 ft 166 kts 285°
2026-05-05 01:01 32.68592 -116.99388 2889 ft 170 kts 286°
2026-05-05 01:01 32.68910 -117.00695 2869 ft 159 kts 285°
2026-05-05 01:02 32.69211 -117.01926 2849 ft 151 kts 285°
2026-05-05 01:02 32.69494 -117.03087 2841 ft 143 kts 286°
2026-05-05 01:02 32.69766 -117.04206 2846 ft 141 kts 285°
2026-05-05 01:02 32.70039 -117.05325 2673 ft 146 kts 285°
2026-05-05 01:03 32.70227 -117.06095 2497 ft 146 kts 285°
2026-05-05 01:03 32.70508 -117.07250 2250 ft 146 kts 285°
2026-05-05 01:03 32.70792 -117.08416 1956 ft 149 kts 284°
2026-05-05 01:03 32.71080 -117.09598 1684 ft 147 kts 285°
2026-05-05 01:04 32.71365 -117.10756 1337 ft 142 kts 285°
2026-05-05 01:04 32.71895 -117.12929 968 ft 136 kts 285°
2026-05-05 01:04 32.72156 -117.14002 834 ft 135 kts 285°
2026-05-05 01:05 32.72419 -117.15070 678 ft 134 kts 284°
2026-05-05 01:05 32.72667 -117.16126 433 ft 132 kts 284°
2026-05-05 01:05 32.72921 -117.17181 215 ft 132 kts 285°
2026-05-05 01:05 32.73177 -117.18221 39 ft 129 kts 284°
2026-05-05 01:06 32.73385 -117.19086 24 ft 85 kts 286°
2026-05-05 01:06 32.73501 -117.19564 27 ft 36 kts 286°
2026-05-05 01:06 32.73531 -117.19756 30 ft 20 kts 259°
2026-05-05 01:06 32.73497 -117.19874 28 ft 10 kts 251°
2026-05-05 01:07 32.73481 -117.19896 27 ft 1 kts 136°
2026-05-05 01:07 32.73480 -117.19893 27 ft 0 kts 123°
2026-05-05 01:07 32.73476 -117.19884 28 ft 2 kts 119°